Regional Weather Roundup
Issued by NWS

Home | Current Version | Previous Version | Graphics & Text | Print | Product List | Glossary Off
Versions: 1 2 3 4 5 6 7 8 9 10 11 12 13 14 15 16 17 18 19 20 21 22 23 24 25 26 27 28 29 30 31 32 33 34 35 36 37 38 39 40 41 42 43 44 45 46 47 48 49 50

000
ASUS43 KMKX 281000
RWRWI

WISCONSIN REGIONAL WEATHER ROUNDUP
NATIONAL WEATHER SERVICE MILWAUKEE/SULLIVAN WI
500 AM CDT THU AUG 28 2014

NOTE: "FAIR" INDICATES FEW OR NO CLOUDS BELOW 12,000 FEET WITH NO
SIGNIFICANT WEATHER AND/OR OBSTRUCTIONS TO VISIBILITY.

WIZ001-002-006>008-014>016-023>028-281100-
NORTHWEST WISCONSIN

CITY           SKY/WX    TMP DP  RH WIND       PRES   REMARKS
SUPERIOR ARPT  FOG       47  47 100 CALM      30.12S VSB 3/4
ASHLAND        CLEAR     47  46  97 S3        30.15S
HAYWARD        CLEAR     49  48  97 CALM      30.15S
SIREN          PTCLDY    55  53  92 S3        30.12F
RICE LAKE      PTCLDY    53  50  92 CALM      30.15F
LADYSMITH      MOCLDY    51  49  90 E3        30.17S
EAU CLAIRE     NOT AVBL
MENOMONIE      SUNNY     56  54  91 NE5       30.12F
NEW RICHMOND   CLEAR     58  53  83 E5        30.11F
OSCEOLA        PTCLDY    60  55  84 SE5       30.13F
$$

WIZ003>005-009-010-017-018-281100-
NORTH CENTRAL WISCONSIN

CITY           SKY/WX    TMP DP  RH WIND       PRES   REMARKS
WOODRUFF       CLEAR     50  47  92 CALM      30.18S
RHINELANDER    PTCLDY    44  43  96 CALM      30.18S FOG
EAGLE RIVER    FOG       40  40 100 CALM      30.18S VSB 1
LAND O LAKES   PTCLDY    43  43 100 CALM      30.19F
PHILLIPS       CLEAR     47  45  93 CALM      30.16S
TOMAHAWK       CLEAR     40  39  97 CALM      30.18S FOG
MEDFORD        CLEAR     47  46  96 E5        30.16F
MERRILL        CLEAR     44  44  99 CALM      30.17S
$$

WIZ029-030-035-036-043>047-281100-
CENTRAL WISCONSIN

CITY           SKY/WX    TMP DP  RH WIND       PRES   REMARKS
WAUSAU         CLEAR     51  49  92 CALM      30.15S
MOSINEE        CLEAR     50  50 100 NE6       30.16F
MARSHFIELD     CLEAR     53  49  86 NE6       30.14F
STEVENS POINT  CLEAR     50  49  95 CALM      30.16S
WAUPACA        CLOUDY    59  58  95 CALM      30.16S
WAUTOMA        NOT AVBL
WISC RAPIDS    CLEAR     55  51  86 NE5       30.15F
CAMP DOUGLAS   FOG       52  52 100 W1        30.13S VSB 1/2
$$

WIZ011>013-019>022-031-037>040-048>050-281100-
NORTHEAST WISCONSIN

CITY           SKY/WX    TMP DP  RH WIND       PRES   REMARKS
ANTIGO         CLEAR     47  47  99 CALM      30.17S
STURGEON BAY   CLOUDY    55  52  88 S5        30.17S
GREEN BAY      CLOUDY    58  57  97 NE3       30.16S
MANITOWOC      NOT AVBL
APPLETON       MOCLDY    59  55  88 N5        30.16S
CLINTONVILLE   CLOUDY    55  55 100 CALM      30.15F
OSHKOSH        PTCLDY    57  55  93 CALM      30.14S
$$

WIZ032>034-041-042-053>061-281100-
SOUTHWEST WISCONSIN

CITY           SKY/WX    TMP DP  RH WIND       PRES   REMARKS
LA CROSSE      CLEAR     60  58  92 E3        30.11S
SPARTA         CLEAR     51  50  97 CALM      30.13S
VIROQUA        FAIR      58  58 100 E5        30.13S
BOSCOBEL       FOG       61  59  93 CALM      30.12S VSB 1/2
PRAIRIE DU CHI CLOUDY    59  58  96 CALM      30.10S FOG
PLATTEVILLE    MOCLDY    61  60  96 CALM      30.12S
$$

WIZ056-057-062-063-064-067-068-281100-
SOUTH CENTRAL WISCONSIN

CITY           SKY/WX    TMP DP  RH WIND       PRES   REMARKS
BARABOO/DELLS  CLEAR     56  54  94 CALM      30.14R
LONE ROCK      FOG       62  58  86 NE3       30.13S VSB 3/4
WATERTOWN      CLEAR     54  54 100 CALM      30.14S
MADISON        CLEAR     59  57  93 CALM      30.13S FOG
MIDDLETON      FAIR      62  62 100 CALM      30.14S
MONROE         FOG       61  61 100 CALM      30.13S VSB 1/4
JANESVILLE     CLEAR     59  57  94 NE3       30.13S
$$

WIZ051-052-058>065-066-070>072-281100-
SOUTHEAST WISCONSIN

CITY           SKY/WX    TMP DP  RH WIND       PRES   REMARKS
MILWAUKEE      CLEAR     62  53  72 E8        30.14F
WAUKESHA       CLEAR     54  54 100 CALM      30.16S
MILWAUKEE/TIMM CLEAR     55  52  88 CALM      30.15F
RACINE         CLEAR     64  57  78 E10       30.15F
BURLINGTON     CLEAR     54  54 100 CALM      30.14S
KENOSHA        CLEAR     57  54  89 E5        30.14F
FOND DU LAC    CLEAR     57  55  93 CALM      30.15S
SHEBOYGAN      CLEAR     54  53  97 NE3       30.16S
WEST BEND      FOG       54  52  94 CALM      30.16S VSB 1/2
JUNEAU         CLEAR     55  55  97 CALM      30.15S
$$

LSZ147-162-281100-
LAKE SUPERIOR

STATION/POSITION TIME  TEMP    WIND        PRES    WAVE
                       AIR SEA DIR/SP/G            HT/PER
                 (UTC) (F)     (DEG/KT/KT) (MB)    (FT/S)
W MID LAKE BUOY  0850   57 57  150/  4/  6 1020.4F   0
DEVILS ISLAND    0900   60     190/  8/  8 1020.4F
PORT WING        0900   58     160/  5/  6 1020.3
SAXON HARBOR     0900   56     190/  3/  6 1020.7F
$$

LMZ867-665-643>646-281100-
LAKE MICHIGAN

STATION/POSITION TIME  TEMP    WIND        PRES    WAVE
                       AIR SEA DIR/SP/G            HT/PER
                 (UTC) (F)     (DEG/KT/KT) (MB)    (FT/S)
N MID LAKE BUOY  0850   62 65  140/  2/  4 1021.6F   1
NORTHPORT PIER   0900   61     130/  6/  8 1021.3F
SISTER BAY       0911   58        CALM       N/A
ALGOMA LAKESHORE 0808          170/  8/ 10   N/A
KEWAUNEE LAKESHO 0900   63     130/  5/  9 1020.6S
SHEBOYGAN LAKESH 0900   65 68  110/  6/  7 1021.3F
ATWATER BUOY     0900   68     120/ 10/ 12 1021.9F
MILWAUKEE LAKESH 0900   67     100/  9/ 10   N/A
S MID LAKE BUOY  0850   66 69   90/ 12/ 14 1021.1R   1/ 3
KENOSHA   LAKESH 0900   68      80/ 12/ 13 1020.3F
$$

TC  - TEMPERATURE IN CELSIUS
VSB - VISIBILITY IN STATUTE MILES
WCI - WIND CHILL INDEX
HX  - HEAT INDEX




USA.gov is the U.S. government's official web portal to all federal, state and local government web resources and services.